Darstellungsparameter: Aktuell verwendete Einstellungen:
Skalierung der Graphiken ... ?
xyx+y,   Skalierungsfaktor:      Skalierung: Modus: x, Faktor: 1
Darstellungszeitraum ... ?
Vom - - bis: - -   Zeitraum: 29.03.2020 - 31.03.2020
Min/Max/Avg-Anzeige ... ?
Zeige MMA aktuell
Zeige MMA Monat
Zeige MMA alles
Zeige --A aktuell
Zeige --A Monat
Zeige --A alles
Keine MMA-Anzeige
MMA:
Average (ber die Originaldaten)
MMA-Basis: 29.03.2020 - 31.03.2020
Quicknavigation für Darstellung... ?
Tage:      1T, 2T, 3T, 5T -1T -2T -3T -5T +1T +2T +3T +5T
Wochen: 1W, 2W, 3W -1W -2W -3W +1W +2W +3W
Monate: 1M, 3M, 6M -1M -3M -6M +1M +3M +6M
Jahre:    1J, 3J, 5J, 10J -1J -3J -5J -10J +1J +3J +5J +10J
Nutze für die Darstellung ... ?
Originaldaten oder Mittelwerte auf ...
Stundenbasis Tagesbasis Wochenbasis
Monatsbasis Jahresbasis      Datenbasis: Original-Daten
Darstellen als:
Statistik (Auto) Statistik J:M      Darstellung:
Zur Graphik,    zurück zur Übersicht aller Sensoren.
 
Tabellarische Datenbersicht: ?
 
Sensor: Nr:Datum:Temp:Abs-Feuchte:Windchill:Wind:
Aussen-T/F 1 29-03-2020 00:00:00 7.4 C 5.81 g/m*3 5.58 C 9.7 km/h
2 29-03-2020 00:05:00 7.3 C 5.85 g/m*3 7.3 C 4.8 km/h
3 29-03-2020 00:10:00 7.2 C 5.81 g/m*3 5.35 C 9.7 km/h
4 29-03-2020 00:15:00 7.2 C 5.81 g/m*3 5.69 C 8.1 km/h
5 29-03-2020 00:20:00 7.1 C 5.77 g/m*3 6.02 C 6.4 km/h
6 29-03-2020 00:25:00 7.1 C 5.77 g/m*3 5.23 C 9.7 km/h
7 29-03-2020 00:30:00 7.1 C 5.77 g/m*3 5.23 C 9.7 km/h
8 29-03-2020 00:35:00 7.1 C 5.77 g/m*3 3.98 C 17.7 km/h
9 29-03-2020 00:40:00 7.1 C 5.77 g/m*3 6.02 C 6.4 km/h
10 29-03-2020 00:45:00 7.1 C 5.77 g/m*3 4.92 C 11.3 km/h
11 29-03-2020 00:50:00 7 C 5.66 g/m*3 5.11 C 9.7 km/h
12 29-03-2020 00:55:00 7 C 5.66 g/m*3 4.8 C 11.3 km/h
13 29-03-2020 01:00:00 6.9 C 5.62 g/m*3 4.68 C 11.3 km/h
14 29-03-2020 01:05:00 6.8 C 5.58 g/m*3 3.82 C 16.1 km/h
15 29-03-2020 01:10:00 6.8 C 5.58 g/m*3 4.29 C 12.9 km/h
16 29-03-2020 01:15:00 6.7 C 5.55 g/m*3 3.69 C 16.1 km/h
17 29-03-2020 01:20:00 6.7 C 5.55 g/m*3 4.17 C 12.9 km/h
18 29-03-2020 01:25:00 6.6 C 5.44 g/m*3 3.36 C 17.7 km/h
19 29-03-2020 01:30:00 6.6 C 5.44 g/m*3 4.63 C 9.7 km/h
20 29-03-2020 01:35:00 6.5 C 5.4 g/m*3 4.2 C 11.3 km/h
21 29-03-2020 01:40:00 6.4 C 5.36 g/m*3 3.8 C 12.9 km/h
22 29-03-2020 01:45:00 6.4 C 5.29 g/m*3 3.11 C 17.7 km/h
23 29-03-2020 01:50:00 6.4 C 5.29 g/m*3 4.39 C 9.7 km/h
24 29-03-2020 01:55:00 6.3 C 5.18 g/m*3 3.96 C 11.3 km/h
25 29-03-2020 02:00:00 6.3 C 5.18 g/m*3 3.43 C 14.5 km/h
Sensor: Nr:Datum:Temp:Abs-Feuchte:Windchill:Wind:
Aussen-T/F 26 29-03-2020 02:05:00 6.2 C 5.15 g/m*3 2.86 C 17.7 km/h
27 29-03-2020 02:10:00 6.2 C 5.07 g/m*3 3.84 C 11.3 km/h
28 29-03-2020 02:15:00 6.1 C 5.11 g/m*3 3.43 C 12.9 km/h
29 29-03-2020 02:20:00 5.9 C 5.05 g/m*3 3.19 C 12.9 km/h
30 29-03-2020 02:25:00 5.8 C 5.01 g/m*3 2.16 C 19.3 km/h
31 29-03-2020 02:30:00 5.7 C 5.05 g/m*3 2.03 C 19.3 km/h
32 29-03-2020 02:35:00 5.6 C 5.02 g/m*3 2.57 C 14.5 km/h
33 29-03-2020 02:40:00 5.4 C 5.02 g/m*3 3.58 C 8.1 km/h
34 29-03-2020 02:45:00 5.3 C 4.99 g/m*3 3.46 C 8.1 km/h
35 29-03-2020 02:50:00 5.2 C 4.89 g/m*3 2.63 C 11.3 km/h
36 29-03-2020 02:55:00 5.2 C 4.82 g/m*3 2.07 C 14.5 km/h
37 29-03-2020 04:00:00 5.2 C 4.82 g/m*3 2.63 C 11.3 km/h
38 29-03-2020 04:05:00 5.1 C 4.79 g/m*3 2.51 C 11.3 km/h
39 29-03-2020 04:10:00 5 C 4.76 g/m*3 2.39 C 11.3 km/h
40 29-03-2020 04:15:00 4.9 C 4.66 g/m*3 1.97 C 12.9 km/h
41 29-03-2020 04:20:00 4.8 C 4.63 g/m*3 1.34 C 16.1 km/h
42 29-03-2020 04:25:00 4.8 C 4.63 g/m*3 2.49 C 9.7 km/h
43 29-03-2020 04:30:00 4.8 C 4.63 g/m*3 1.85 C 12.9 km/h
44 29-03-2020 04:35:00 4.8 C 4.69 g/m*3 1.58 C 14.5 km/h
45 29-03-2020 04:40:00 4.8 C 4.69 g/m*3 4.8 C 4.8 km/h
46 29-03-2020 04:45:00 4.8 C 4.69 g/m*3 4.8 C 3.2 km/h
47 29-03-2020 04:50:00 4.8 C 4.76 g/m*3 2.87 C 8.1 km/h
48 29-03-2020 04:55:00 4.8 C 4.76 g/m*3 3.36 C 6.4 km/h
49 29-03-2020 05:00:00 4.8 C 4.83 g/m*3 2.15 C 11.3 km/h
50 29-03-2020 05:05:00 4.8 C 4.83 g/m*3 2.49 C 9.7 km/h
Sensor: Nr:Datum:Temp:Abs-Feuchte:Windchill:Wind:
Aussen-T/F 51 29-03-2020 05:10:00 4.8 C 4.9 g/m*3 2.49 C 9.7 km/h
52 29-03-2020 05:15:00 4.8 C 4.83 g/m*3 1.34 C 16.1 km/h
53 29-03-2020 05:20:00 4.7 C 4.73 g/m*3 0.99 C 17.7 km/h
54 29-03-2020 05:25:00 4.7 C 4.73 g/m*3 0.99 C 17.7 km/h
55 29-03-2020 05:30:00 4.6 C 4.63 g/m*3 0.65 C 19.3 km/h
56 29-03-2020 05:35:00 4.5 C 4.6 g/m*3 1.79 C 11.3 km/h
57 29-03-2020 05:40:00 4.4 C 4.57 g/m*3 1.09 C 14.5 km/h
58 29-03-2020 05:45:00 4.3 C 4.48 g/m*3 0.97 C 14.5 km/h
59 29-03-2020 05:50:00 4.3 C 4.54 g/m*3 1.55 C 11.3 km/h
60 29-03-2020 05:55:00 4.2 C 4.51 g/m*3 2.17 C 8.1 km/h
61 29-03-2020 06:00:00 4.1 C 4.48 g/m*3 2.05 C 8.1 km/h
62 29-03-2020 06:05:00 4 C 4.45 g/m*3 1.93 C 8.1 km/h
63 29-03-2020 06:10:00 3.9 C 4.42 g/m*3 1.06 C 11.3 km/h
64 29-03-2020 06:15:00 3.8 C 4.39 g/m*3 3.8 C 4.8 km/h
65 29-03-2020 06:20:00 3.8 C 4.45 g/m*3 3.8 C 4.8 km/h
66 29-03-2020 06:25:00 3.7 C 4.42 g/m*3 3.7 C 3.2 km/h
67 29-03-2020 06:30:00 3.7 C 4.49 g/m*3 3.7 C 1.6 km/h
68 29-03-2020 06:35:00 3.7 C 4.49 g/m*3 3.7 C 4.8 km/h
69 29-03-2020 06:40:00 3.7 C 4.55 g/m*3 3.7 C 1.6 km/h
70 29-03-2020 06:45:00 3.7 C 4.55 g/m*3 2.09 C 6.4 km/h
71 29-03-2020 06:50:00 3.7 C 4.61 g/m*3 3.7 C 3.2 km/h
72 29-03-2020 06:55:00 3.8 C 4.71 g/m*3 1.29 C 9.7 km/h
73 29-03-2020 07:00:00 3.8 C 4.71 g/m*3 2.21 C 6.4 km/h
74 29-03-2020 07:05:00 3.9 C 4.8 g/m*3 1.06 C 11.3 km/h
75 29-03-2020 07:10:00 3.9 C 4.8 g/m*3 1.82 C 8.1 km/h
Sensor: Nr:Datum:Temp:Abs-Feuchte:Windchill:Wind:
Aussen-T/F 76 29-03-2020 07:15:00 4 C 4.9 g/m*3 2.44 C 6.4 km/h
77 29-03-2020 07:20:00 4 C 4.9 g/m*3 2.44 C 6.4 km/h
78 29-03-2020 07:25:00 4 C 4.9 g/m*3 2.44 C 6.4 km/h
79 29-03-2020 07:30:00 4.1 C 4.93 g/m*3 1.31 C 11.3 km/h
80 29-03-2020 07:35:00 4.1 C 4.93 g/m*3 1.65 C 9.7 km/h
81 29-03-2020 07:40:00 4.1 C 4.93 g/m*3 1.31 C 11.3 km/h
82 29-03-2020 07:45:00 4.2 C 4.96 g/m*3 1.43 C 11.3 km/h
83 29-03-2020 07:50:00 4.2 C 4.96 g/m*3 1.77 C 9.7 km/h
84 29-03-2020 07:55:00 4.2 C 4.96 g/m*3 1.77 C 9.7 km/h
85 29-03-2020 08:00:00 4.2 C 4.96 g/m*3 1.12 C 12.9 km/h
86 29-03-2020 08:05:00 4.2 C 4.96 g/m*3 1.43 C 11.3 km/h
87 29-03-2020 08:10:00 4.2 C 4.96 g/m*3 2.17 C 8.1 km/h
88 29-03-2020 08:15:00 4.3 C 4.99 g/m*3 2.78 C 6.4 km/h
89 29-03-2020 08:20:00 4.3 C 4.99 g/m*3 1.89 C 9.7 km/h
90 29-03-2020 08:25:00 4.3 C 4.99 g/m*3 1.24 C 12.9 km/h
91 29-03-2020 08:30:00 4.4 C 4.96 g/m*3 1.67 C 11.3 km/h
92 29-03-2020 08:35:00 4.4 C 4.96 g/m*3 1.67 C 11.3 km/h
93 29-03-2020 08:40:00 4.5 C 5 g/m*3 1.21 C 14.5 km/h
94 29-03-2020 08:45:00 4.6 C 4.96 g/m*3 1.61 C 12.9 km/h
95 29-03-2020 08:50:00 4.5 C 4.93 g/m*3 0.74 C 17.7 km/h
96 29-03-2020 08:55:00 4.5 C 4.93 g/m*3 1.21 C 14.5 km/h
97 29-03-2020 09:00:00 4.5 C 5 g/m*3 0.96 C 16.1 km/h
98 29-03-2020 09:05:00 4.5 C 4.93 g/m*3 0.96 C 16.1 km/h
99 29-03-2020 09:10:00 4.5 C 4.93 g/m*3 0.96 C 16.1 km/h
100 29-03-2020 09:15:00 4.5 C 4.93 g/m*3 0.74 C 17.7 km/h
Sensor: Nr:Datum:Temp:Abs-Feuchte:Windchill:Wind:
Aussen-T/F 101 29-03-2020 09:20:00 4.5 C 4.93 g/m*3 0.96 C 16.1 km/h
102 29-03-2020 09:25:00 4.5 C 4.93 g/m*3 1.48 C 12.9 km/h
103 29-03-2020 09:30:00 4.6 C 4.96 g/m*3 0.86 C 17.7 km/h
104 29-03-2020 09:35:00 4.7 C 5 g/m*3 2.37 C 9.7 km/h
105 29-03-2020 09:40:00 4.7 C 4.93 g/m*3 2.03 C 11.3 km/h
106 29-03-2020 09:45:00 4.8 C 4.96 g/m*3 1.58 C 14.5 km/h
107 29-03-2020 09:50:00 4.9 C 4.93 g/m*3 1.46 C 16.1 km/h
108 29-03-2020 09:55:00 5 C 4.96 g/m*3 1.83 C 14.5 km/h
109 29-03-2020 10:00:00 5.1 C 4.99 g/m*3 1.28 C 19.3 km/h
110 29-03-2020 10:05:00 5.2 C 5.03 g/m*3 2.34 C 12.9 km/h
111 29-03-2020 10:10:00 5.3 C 4.99 g/m*3 1.74 C 17.7 km/h
112 29-03-2020 10:15:00 5.3 C 4.99 g/m*3 1.53 C 19.3 km/h
113 29-03-2020 10:20:00 5.4 C 4.95 g/m*3 1.66 C 19.3 km/h
114 29-03-2020 10:25:00 5.6 C 4.95 g/m*3 1.91 C 19.3 km/h
115 29-03-2020 10:30:00 5.6 C 4.95 g/m*3 2.33 C 16.1 km/h
116 29-03-2020 10:35:00 5.8 C 4.94 g/m*3 2.58 C 16.1 km/h
117 29-03-2020 10:40:00 6 C 5.01 g/m*3 2.61 C 17.7 km/h
118 29-03-2020 10:45:00 6.1 C 4.82 g/m*3 2.18 C 22.5 km/h
119 29-03-2020 10:50:00 6.1 C 4.75 g/m*3 2.18 C 22.5 km/h
120 29-03-2020 10:55:00 6.2 C 4.85 g/m*3 3.07 C 16.1 km/h
121 29-03-2020 11:00:00 6.4 C 4.62 g/m*3 2.91 C 19.3 km/h
122 29-03-2020 11:05:00 6.5 C 4.57 g/m*3 3.23 C 17.7 km/h
123 29-03-2020 11:10:00 6.6 C 4.53 g/m*3 2.82 C 22.5 km/h
124 29-03-2020 11:15:00 6.5 C 4.57 g/m*3 3.04 C 19.3 km/h
125 29-03-2020 11:20:00 6.4 C 4.55 g/m*3 1.58 C 33.8 km/h
Sensor: Nr:Datum:Temp:Abs-Feuchte:Windchill:Wind:
Aussen-T/F 126 29-03-2020 11:25:00 6.4 C 4.47 g/m*3 1.58 C 33.8 km/h
127 29-03-2020 11:30:00 6.3 C 4.44 g/m*3 2.27 C 24.1 km/h
128 29-03-2020 11:35:00 6.4 C 4.55 g/m*3 2.91 C 19.3 km/h
129 29-03-2020 11:40:00 6.4 C 4.55 g/m*3 2.91 C 19.3 km/h
130 29-03-2020 11:45:00 6.5 C 4.57 g/m*3 3.44 C 16.1 km/h
131 29-03-2020 11:50:00 6.4 C 4.62 g/m*3 3.11 C 17.7 km/h
132 29-03-2020 11:55:00 6.5 C 4.65 g/m*3 3.23 C 17.7 km/h
133 29-03-2020 12:00:00 6.4 C 4.55 g/m*3 3.11 C 17.7 km/h
134 29-03-2020 12:05:00 6.3 C 4.74 g/m*3 2.79 C 19.3 km/h
135 29-03-2020 12:10:00 6.1 C 4.82 g/m*3 2.18 C 22.5 km/h
136 29-03-2020 12:15:00 5.9 C 4.69 g/m*3 1.76 C 24.1 km/h
137 29-03-2020 12:20:00 5.9 C 4.69 g/m*3 1.61 C 25.7 km/h
138 29-03-2020 12:25:00 5.9 C 4.76 g/m*3 1.76 C 24.1 km/h
139 29-03-2020 12:30:00 5.9 C 4.69 g/m*3 2.48 C 17.7 km/h
140 29-03-2020 12:35:00 5.9 C 4.76 g/m*3 2.48 C 17.7 km/h
141 29-03-2020 12:40:00 5.9 C 4.69 g/m*3 2.93 C 14.5 km/h
142 29-03-2020 12:45:00 6 C 4.72 g/m*3 3.31 C 12.9 km/h
143 29-03-2020 12:50:00 6.1 C 4.68 g/m*3 2.95 C 16.1 km/h
144 29-03-2020 12:55:00 6.2 C 4.63 g/m*3 2.31 C 22.5 km/h
145 29-03-2020 13:00:00 6.3 C 4.59 g/m*3 2.79 C 19.3 km/h
146 29-03-2020 13:05:00 6.3 C 4.52 g/m*3 2.79 C 19.3 km/h
147 29-03-2020 13:10:00 6.3 C 4.44 g/m*3 2.43 C 22.5 km/h
148 29-03-2020 13:15:00 6.3 C 4.37 g/m*3 2.12 C 25.7 km/h
149 29-03-2020 13:20:00 6.4 C 4.4 g/m*3 2.73 C 20.9 km/h
150 29-03-2020 13:25:00 6.5 C 4.35 g/m*3 2.86 C 20.9 km/h
Sensor: Nr:Datum:Temp:Abs-Feuchte:Windchill:Wind:
Aussen-T/F 151 29-03-2020 13:30:00 6.6 C 4.3 g/m*3 3.57 C 16.1 km/h
152 29-03-2020 13:35:00 6.7 C 4.26 g/m*3 3.48 C 17.7 km/h
153 29-03-2020 13:40:00 6.8 C 4.28 g/m*3 4.29 C 12.9 km/h
154 29-03-2020 13:45:00 7.1 C 4.21 g/m*3 4.65 C 12.9 km/h
155 29-03-2020 13:50:00 7.3 C 4.35 g/m*3 4.23 C 17.7 km/h
156 29-03-2020 13:55:00 7.6 C 4.27 g/m*3 5.02 C 14.5 km/h
157 29-03-2020 14:00:00 7.5 C 4.24 g/m*3 5.14 C 12.9 km/h
158 29-03-2020 14:05:00 7.3 C 4.19 g/m*3 4.44 C 16.1 km/h
159 29-03-2020 14:10:00 7.3 C 4.19 g/m*3 4.05 C 19.3 km/h
160 29-03-2020 14:15:00 7.3 C 4.19 g/m*3 4.05 C 19.3 km/h
161 29-03-2020 14:20:00 7.2 C 4.4 g/m*3 3.92 C 19.3 km/h
162 29-03-2020 14:25:00 6.8 C 4.44 g/m*3 3.24 C 20.9 km/h
163 29-03-2020 14:30:00 6.6 C 4.45 g/m*3 2.99 C 20.9 km/h
164 29-03-2020 14:35:00 6.6 C 4.45 g/m*3 3.79 C 14.5 km/h
165 29-03-2020 14:40:00 6.5 C 4.42 g/m*3 3.67 C 14.5 km/h
166 29-03-2020 14:45:00 6.5 C 4.42 g/m*3 3.23 C 17.7 km/h
167 29-03-2020 14:50:00 6.6 C 4.53 g/m*3 3.79 C 14.5 km/h
168 29-03-2020 14:55:00 6.6 C 4.53 g/m*3 2.82 C 22.5 km/h
169 29-03-2020 15:00:00 6.7 C 4.64 g/m*3 3.69 C 16.1 km/h
170 29-03-2020 15:05:00 6.8 C 4.67 g/m*3 3.42 C 19.3 km/h
171 29-03-2020 15:10:00 6.9 C 4.39 g/m*3 3.2 C 22.5 km/h
172 29-03-2020 15:15:00 6.9 C 4.31 g/m*3 3.73 C 17.7 km/h
173 29-03-2020 15:20:00 7 C 4.34 g/m*3 3.67 C 19.3 km/h
174 29-03-2020 15:25:00 7.1 C 4.37 g/m*3 4.41 C 14.5 km/h
175 29-03-2020 15:30:00 7.2 C 4.4 g/m*3 3.92 C 19.3 km/h
Sensor: Nr:Datum:Temp:Abs-Feuchte:Windchill:Wind:
Aussen-T/F 176 29-03-2020 15:35:00 7.3 C 4.5 g/m*3 4.05 C 19.3 km/h
177 29-03-2020 15:40:00 7.4 C 4.45 g/m*3 4.17 C 19.3 km/h
178 29-03-2020 15:45:00 7.3 C 4.58 g/m*3 4.44 C 16.1 km/h
179 29-03-2020 15:50:00 7.3 C 4.58 g/m*3 4.66 C 14.5 km/h
180 29-03-2020 15:55:00 7.3 C 4.5 g/m*3 4.9 C 12.9 km/h
181 29-03-2020 16:00:00 7.3 C 4.5 g/m*3 4.05 C 19.3 km/h
182 29-03-2020 16:05:00 7.2 C 4.4 g/m*3 4.11 C 17.7 km/h
183 29-03-2020 16:10:00 7.2 C 4.32 g/m*3 5.04 C 11.3 km/h
184 29-03-2020 16:15:00 7 C 4.26 g/m*3 3.67 C 19.3 km/h
185 29-03-2020 16:20:00 6.9 C 4.23 g/m*3 3.94 C 16.1 km/h
186 29-03-2020 16:25:00 6.8 C 4.21 g/m*3 3.61 C 17.7 km/h
187 29-03-2020 16:30:00 6.8 C 4.44 g/m*3 3.42 C 19.3 km/h
188 29-03-2020 16:35:00 6.7 C 4.48 g/m*3 3.69 C 16.1 km/h
189 29-03-2020 16:40:00 6.7 C 4.56 g/m*3 4.17 C 12.9 km/h
190 29-03-2020 16:45:00 6.7 C 4.56 g/m*3 3.92 C 14.5 km/h
191 29-03-2020 16:50:00 6.8 C 4.44 g/m*3 3.24 C 20.9 km/h
192 29-03-2020 16:55:00 6.8 C 4.44 g/m*3 3.42 C 19.3 km/h
193 29-03-2020 17:00:00 6.8 C 4.51 g/m*3 4.29 C 12.9 km/h
194 29-03-2020 17:05:00 6.9 C 4.54 g/m*3 3.54 C 19.3 km/h
195 29-03-2020 17:10:00 7.1 C 4.6 g/m*3 3.3 C 24.1 km/h
196 29-03-2020 17:15:00 6.9 C 4.54 g/m*3 3.37 C 20.9 km/h
197 29-03-2020 17:20:00 6.9 C 4.7 g/m*3 3.54 C 19.3 km/h
198 29-03-2020 17:25:00 6.9 C 4.85 g/m*3 3.73 C 17.7 km/h
199 29-03-2020 17:30:00 6.8 C 4.74 g/m*3 3.42 C 19.3 km/h
200 29-03-2020 17:35:00 6.9 C 4.85 g/m*3 3.54 C 19.3 km/h
Sensor: Nr:Datum:Temp:Abs-Feuchte:Windchill:Wind:
Aussen-T/F 201 29-03-2020 17:40:00 7 C 4.88 g/m*3 3.49 C 20.9 km/h
202 29-03-2020 17:45:00 6.9 C 4.85 g/m*3 3.73 C 17.7 km/h
203 29-03-2020 17:50:00 6.8 C 4.89 g/m*3 3.82 C 16.1 km/h
204 29-03-2020 17:55:00 6.8 C 4.97 g/m*3 3.82 C 16.1 km/h
205 29-03-2020 18:00:00 6.9 C 5 g/m*3 3.73 C 17.7 km/h
206 29-03-2020 18:05:00 7 C 5.04 g/m*3 4.06 C 16.1 km/h
207 29-03-2020 18:10:00 6.9 C 4.85 g/m*3 2.61 C 29 km/h
208 29-03-2020 18:15:00 6.7 C 4.79 g/m*3 3.29 C 19.3 km/h
209 29-03-2020 18:20:00 6.6 C 4.83 g/m*3 2.51 C 25.7 km/h
210 29-03-2020 18:25:00 6.4 C 4.84 g/m*3 2.4 C 24.1 km/h
211 29-03-2020 18:30:00 6.2 C 5 g/m*3 2.15 C 24.1 km/h
212 29-03-2020 18:35:00 5.8 C 5.16 g/m*3 1.63 C 24.1 km/h
213 29-03-2020 18:40:00 5.4 C 5.23 g/m*3 1.66 C 19.3 km/h
214 29-03-2020 18:45:00 5.1 C 5.34 g/m*3 1.95 C 14.5 km/h
215 29-03-2020 18:50:00 4.9 C 5.33 g/m*3 2.61 C 9.7 km/h
216 29-03-2020 18:55:00 4.9 C 5.33 g/m*3 0.83 C 20.9 km/h
217 29-03-2020 19:00:00 4.9 C 5.33 g/m*3 0.48 C 24.1 km/h
218 29-03-2020 19:05:00 4.8 C 5.36 g/m*3 0.52 C 22.5 km/h
219 29-03-2020 19:10:00 4.6 C 5.43 g/m*3 0.86 C 17.7 km/h
220 29-03-2020 19:15:00 4.4 C 5.42 g/m*3 1.09 C 14.5 km/h
221 29-03-2020 19:20:00 4.4 C 5.42 g/m*3 1.09 C 14.5 km/h
222 29-03-2020 19:25:00 4.3 C 5.45 g/m*3 0.97 C 14.5 km/h
223 29-03-2020 19:30:00 4.3 C 5.45 g/m*3 0.07 C 20.9 km/h
224 29-03-2020 19:35:00 4.3 C 5.51 g/m*3 0.97 C 14.5 km/h
225 29-03-2020 19:40:00 4.2 C 5.48 g/m*3 0.36 C 17.7 km/h
Sensor: Nr:Datum:Temp:Abs-Feuchte:Windchill:Wind:
Aussen-T/F 226 29-03-2020 19:45:00 4.1 C 5.44 g/m*3 -0.18 C 20.9 km/h
227 29-03-2020 19:50:00 4 C 5.47 g/m*3 0.6 C 14.5 km/h
228 29-03-2020 19:55:00 3.9 C 5.43 g/m*3 3.9 C 4.8 km/h
229 29-03-2020 20:00:00 3.9 C 5.43 g/m*3 2.32 C 6.4 km/h
230 29-03-2020 20:05:00 3.8 C 5.46 g/m*3 3.8 C 3.2 km/h
231 29-03-2020 20:10:00 3.8 C 5.46 g/m*3 2.21 C 6.4 km/h
232 29-03-2020 20:15:00 3.8 C 5.46 g/m*3 3.8 C 3.2 km/h
233 29-03-2020 20:20:00 3.8 C 5.46 g/m*3 3.8 C 3.2 km/h
234 29-03-2020 20:25:00 3.8 C 5.46 g/m*3 3.8 C 3.2 km/h
235 29-03-2020 20:30:00 3.8 C 5.46 g/m*3 3.8 C 1.6 km/h
236 29-03-2020 20:35:00 3.8 C 5.46 g/m*3 3.8 C 4.8 km/h
237 29-03-2020 20:40:00 3.9 C 5.43 g/m*3 3.9 C 4.8 km/h
238 29-03-2020 20:45:00 3.9 C 5.37 g/m*3 3.9 C 4.8 km/h
239 29-03-2020 20:50:00 4.1 C 5.38 g/m*3 2.05 C 8.1 km/h
240 29-03-2020 20:55:00 4.2 C 5.35 g/m*3 2.67 C 6.4 km/h
241 29-03-2020 21:00:00 4.2 C 5.28 g/m*3 2.67 C 6.4 km/h
242 29-03-2020 21:05:00 4.2 C 5.22 g/m*3 2.17 C 8.1 km/h
243 29-03-2020 21:10:00 4.3 C 5.19 g/m*3 1.89 C 9.7 km/h
244 29-03-2020 21:15:00 4.3 C 5.12 g/m*3 2.29 C 8.1 km/h
245 29-03-2020 21:20:00 4.3 C 5.06 g/m*3 1.55 C 11.3 km/h
246 29-03-2020 21:25:00 4.4 C 5.09 g/m*3 2.4 C 8.1 km/h
247 29-03-2020 21:30:00 4.4 C 5.03 g/m*3 2.01 C 9.7 km/h
248 29-03-2020 21:35:00 4.4 C 5.03 g/m*3 1.67 C 11.3 km/h
249 29-03-2020 21:40:00 4.4 C 4.96 g/m*3 1.09 C 14.5 km/h
250 29-03-2020 21:45:00 4.4 C 4.9 g/m*3 1.36 C 12.9 km/h
Sensor: Nr:Datum:Temp:Abs-Feuchte:Windchill:Wind:
Aussen-T/F 251 29-03-2020 21:50:00 4.4 C 4.9 g/m*3 1.67 C 11.3 km/h
252 29-03-2020 21:55:00 4.4 C 4.96 g/m*3 1.36 C 12.9 km/h
253 29-03-2020 22:00:00 4.4 C 4.9 g/m*3 1.36 C 12.9 km/h
254 29-03-2020 22:05:00 4.3 C 4.86 g/m*3 0.27 C 19.3 km/h
255 29-03-2020 22:10:00 4.3 C 4.86 g/m*3 0.07 C 20.9 km/h
256 29-03-2020 22:15:00 4.3 C 4.86 g/m*3 0.07 C 20.9 km/h
257 29-03-2020 22:20:00 4.3 C 4.8 g/m*3 1.24 C 12.9 km/h
258 29-03-2020 22:25:00 4.3 C 4.8 g/m*3 1.24 C 12.9 km/h
259 29-03-2020 22:30:00 4.3 C 4.74 g/m*3 0.97 C 14.5 km/h
260 29-03-2020 22:35:00 4.2 C 4.7 g/m*3 1.43 C 11.3 km/h
261 29-03-2020 22:40:00 4.2 C 4.7 g/m*3 0.59 C 16.1 km/h
262 29-03-2020 22:45:00 4.2 C 4.64 g/m*3 0.59 C 16.1 km/h
263 29-03-2020 22:50:00 4.2 C 4.7 g/m*3 0.59 C 16.1 km/h
264 29-03-2020 22:55:00 4.2 C 4.64 g/m*3 0.59 C 16.1 km/h
265 29-03-2020 23:00:00 4.2 C 4.57 g/m*3 0.36 C 17.7 km/h
266 29-03-2020 23:05:00 4.2 C 4.57 g/m*3 1.12 C 12.9 km/h
267 29-03-2020 23:10:00 4.2 C 4.57 g/m*3 1.12 C 12.9 km/h
268 29-03-2020 23:15:00 4.1 C 4.48 g/m*3 0.47 C 16.1 km/h
269 29-03-2020 23:20:00 4.1 C 4.42 g/m*3 0.72 C 14.5 km/h
270 29-03-2020 23:25:00 4.1 C 4.48 g/m*3 0.47 C 16.1 km/h
271 29-03-2020 23:30:00 4.1 C 4.42 g/m*3 0.72 C 14.5 km/h
272 29-03-2020 23:35:00 4 C 4.32 g/m*3 -0.5 C 22.5 km/h
273 29-03-2020 23:40:00 3.9 C 4.23 g/m*3 0.75 C 12.9 km/h
274 29-03-2020 23:45:00 3.9 C 4.23 g/m*3 -0.01 C 17.7 km/h
275 29-03-2020 23:50:00 3.8 C 4.2 g/m*3 0.63 C 12.9 km/h
Sensor: Nr:Datum:Temp:Abs-Feuchte:Windchill:Wind:
Aussen-T/F 276 29-03-2020 23:55:00 3.7 C 4.18 g/m*3 1.18 C 9.7 km/h
277 30-03-2020 00:00:00 3.6 C 4.15 g/m*3 0.7 C 11.3 km/h
278 30-03-2020 00:05:00 3.4 C 4.09 g/m*3 0.46 C 11.3 km/h
279 30-03-2020 00:10:00 3.3 C 4.06 g/m*3 1.11 C 8.1 km/h
280 30-03-2020 00:15:00 3.3 C 4 g/m*3 0.7 C 9.7 km/h
281 30-03-2020 00:20:00 3.3 C 4 g/m*3 0.7 C 9.7 km/h
282 30-03-2020 00:25:00 3.3 C 4.06 g/m*3 1.11 C 8.1 km/h
283 30-03-2020 00:30:00 3.1 C 4.07 g/m*3 3.1 C 4.8 km/h
284 30-03-2020 00:35:00 2.9 C 4.07 g/m*3 2.9 C 3.2 km/h
285 30-03-2020 00:40:00 2.7 C 4.08 g/m*3 0.94 C 6.4 km/h
286 30-03-2020 00:45:00 2.4 C 4 g/m*3 2.4 C 4.8 km/h
287 30-03-2020 00:50:00 2.2 C 4.06 g/m*3 2.2 C 3.2 km/h
288 30-03-2020 00:55:00 1.9 C 4.03 g/m*3 1.9 C 3.2 km/h
289 30-03-2020 01:00:00 1.7 C 4.03 g/m*3 1.7 C 3.2 km/h
290 30-03-2020 01:05:00 1.5 C 3.97 g/m*3 1.5 C 3.2 km/h
291 30-03-2020 01:10:00 1.4 C 3.95 g/m*3 1.4 C 4.8 km/h
292 30-03-2020 01:15:00 1.4 C 3.95 g/m*3 1.4 C 4.8 km/h
293 30-03-2020 01:20:00 1.4 C 3.89 g/m*3 1.4 C 3.2 km/h
294 30-03-2020 01:25:00 1.4 C 3.89 g/m*3 -0.56 C 6.4 km/h
295 30-03-2020 01:30:00 1.5 C 3.81 g/m*3 1.5 C 3.2 km/h
296 30-03-2020 01:35:00 1.4 C 3.89 g/m*3 1.4 C 4.8 km/h
297 30-03-2020 01:40:00 1.3 C 3.92 g/m*3 1.3 C 1.6 km/h
298 30-03-2020 01:45:00 1.1 C 3.92 g/m*3 1.1 C 1.6 km/h
299 30-03-2020 01:50:00 0.8 C 3.84 g/m*3 0.8 C 1.6 km/h
300 30-03-2020 01:55:00 0.6 C 3.84 g/m*3 0.6 C 3.2 km/h
Sensor: Nr:Datum:Temp:Abs-Feuchte:Windchill:Wind:
Aussen-T/F 301 30-03-2020 02:00:00 0.4 C 3.84 g/m*3 0.4 C 1.6 km/h
302 30-03-2020 02:05:00 0.3 C 3.76 g/m*3 -1.84 C 6.4 km/h
303 30-03-2020 02:10:00 0.3 C 3.81 g/m*3 0.3 C 0 km/h
304 30-03-2020 02:15:00 0.2 C 3.78 g/m*3 0.2 C 0 km/h
305 30-03-2020 02:20:00 -0.1 C 3.75 g/m*3 -0.1 C 1.6 km/h
306 30-03-2020 02:25:00 -0.3 C 3.7 g/m*3 -0.3 C 0 km/h
307 30-03-2020 02:30:00 -0.5 C 3.7 g/m*3 -0.5 C 0 km/h
308 30-03-2020 02:35:00 -0.7 C 3.69 g/m*3 -0.7 C 1.6 km/h
309 30-03-2020 02:40:00 -0.7 C 3.69 g/m*3 -0.7 C 1.6 km/h
310 30-03-2020 02:45:00 -0.8 C 3.71 g/m*3 -0.8 C 1.6 km/h
311 30-03-2020 02:50:00 -0.8 C 3.71 g/m*3 -0.8 C 0 km/h
312 30-03-2020 02:55:00 -0.9 C 3.69 g/m*3 -0.9 C 1.6 km/h
313 30-03-2020 03:00:00 -0.9 C 3.69 g/m*3 -0.9 C 3.2 km/h
314 30-03-2020 03:05:00 -1 C 3.62 g/m*3 -1 C 4.8 km/h
315 30-03-2020 03:10:00 -1 C 3.62 g/m*3 -1 C 3.2 km/h
316 30-03-2020 03:15:00 -1 C 3.66 g/m*3 -1 C 3.2 km/h
317 30-03-2020 03:20:00 -1.1 C 3.64 g/m*3 -1.1 C 3.2 km/h
318 30-03-2020 03:25:00 -1.1 C 3.64 g/m*3 -1.1 C 0 km/h
319 30-03-2020 03:30:00 -1.2 C 3.66 g/m*3 -1.2 C 1.6 km/h
320 30-03-2020 03:35:00 -1.3 C 3.63 g/m*3 -1.3 C 0 km/h
321 30-03-2020 03:40:00 -1.4 C 3.6 g/m*3 -1.4 C 3.2 km/h
322 30-03-2020 03:45:00 -1.4 C 3.6 g/m*3 -1.4 C 3.2 km/h
323 30-03-2020 03:50:00 -1.5 C 3.62 g/m*3 -1.5 C 3.2 km/h
324 30-03-2020 03:55:00 -1.6 C 3.6 g/m*3 -1.6 C 0 km/h
325 30-03-2020 04:00:00 -1.6 C 3.6 g/m*3 -1.6 C 3.2 km/h
Sensor: Nr:Datum:Temp:Abs-Feuchte:Windchill:Wind:
Aussen-T/F 326 30-03-2020 04:05:00 -1.6 C 3.6 g/m*3 -1.6 C 4.8 km/h
327 30-03-2020 04:10:00 -1.6 C 3.6 g/m*3 -1.6 C 0 km/h
328 30-03-2020 04:15:00 -1.6 C 3.64 g/m*3 -1.6 C 0 km/h
329 30-03-2020 04:20:00 -1.6 C 3.6 g/m*3 -1.6 C 1.6 km/h
330 30-03-2020 04:25:00 -1.7 C 3.57 g/m*3 -1.7 C 4.8 km/h
331 30-03-2020 04:30:00 -1.7 C 3.57 g/m*3 -1.7 C 0 km/h
332 30-03-2020 04:35:00 -1.8 C 3.55 g/m*3 -1.8 C 0 km/h
333 30-03-2020 04:40:00 -1.8 C 3.55 g/m*3 -1.8 C 0 km/h
334 30-03-2020 04:45:00 -1.9 C 3.52 g/m*3 -1.9 C 0 km/h
335 30-03-2020 04:50:00 -2 C 3.5 g/m*3 -2 C 3.2 km/h
336 30-03-2020 04:55:00 -2 C 3.5 g/m*3 -2 C 0 km/h
337 30-03-2020 05:00:00 -1.9 C 3.52 g/m*3 -1.9 C 3.2 km/h
338 30-03-2020 05:05:00 -1.8 C 3.51 g/m*3 -1.8 C 3.2 km/h
339 30-03-2020 05:10:00 -1.8 C 3.51 g/m*3 -1.8 C 1.6 km/h
340 30-03-2020 05:15:00 -1.8 C 3.46 g/m*3 -1.8 C 0 km/h
341 30-03-2020 05:20:00 -1.9 C 3.44 g/m*3 -1.9 C 1.6 km/h
342 30-03-2020 05:25:00 -1.9 C 3.44 g/m*3 -1.9 C 3.2 km/h
343 30-03-2020 05:30:00 -2 C 3.41 g/m*3 -2 C 0 km/h
344 30-03-2020 05:35:00 -2.1 C 3.39 g/m*3 -2.1 C 3.2 km/h
345 30-03-2020 05:40:00 -2.2 C 3.37 g/m*3 -2.2 C 0 km/h
346 30-03-2020 05:45:00 -2.3 C 3.38 g/m*3 -2.3 C 0 km/h
347 30-03-2020 05:50:00 -2.4 C 3.36 g/m*3 -2.4 C 0 km/h
348 30-03-2020 05:55:00 -2.5 C 3.34 g/m*3 -2.5 C 0 km/h
349 30-03-2020 06:00:00 -2.6 C 3.31 g/m*3 -2.6 C 0 km/h
350 30-03-2020 06:05:00 -2.7 C 3.29 g/m*3 -2.7 C 0 km/h
Sensor: Nr:Datum:Temp:Abs-Feuchte:Windchill:Wind:
Aussen-T/F 351 30-03-2020 06:10:00 -2.7 C 3.29 g/m*3 -2.7 C 0 km/h
352 30-03-2020 06:15:00 -2.8 C 3.31 g/m*3 -2.8 C 0 km/h
353 30-03-2020 06:20:00 -2.9 C 3.28 g/m*3 -2.9 C 0 km/h
354 30-03-2020 06:25:00 -3 C 3.3 g/m*3 -3 C 0 km/h
355 30-03-2020 06:30:00 -3 C 3.3 g/m*3 -3 C 0 km/h
356 30-03-2020 06:35:00 -3.1 C 3.28 g/m*3 -3.1 C 0 km/h
357 30-03-2020 06:40:00 -3.1 C 3.28 g/m*3 -5.76 C 6.4 km/h
358 30-03-2020 06:45:00 -3.1 C 3.28 g/m*3 -3.1 C 3.2 km/h
359 30-03-2020 06:50:00 -2.9 C 3.36 g/m*3 -2.9 C 1.6 km/h
360 30-03-2020 06:55:00 -2.9 C 3.36 g/m*3 -2.9 C 0 km/h
361 30-03-2020 07:00:00 -2.8 C 3.35 g/m*3 -2.8 C 0 km/h
362 30-03-2020 07:05:00 -2.9 C 3.32 g/m*3 -2.9 C 1.6 km/h
363 30-03-2020 07:10:00 -2.9 C 3.32 g/m*3 -2.9 C 1.6 km/h
364 30-03-2020 07:15:00 -2.9 C 3.32 g/m*3 -2.9 C 3.2 km/h
365 30-03-2020 07:20:00 -2.9 C 3.32 g/m*3 -2.9 C 1.6 km/h
366 30-03-2020 07:25:00 -2.9 C 3.28 g/m*3 -2.9 C 0 km/h
367 30-03-2020 07:30:00 -3 C 3.26 g/m*3 -3 C 0 km/h
368 30-03-2020 07:35:00 -3.1 C 3.24 g/m*3 -3.1 C 0 km/h
369 30-03-2020 07:40:00 -3.2 C 3.25 g/m*3 -3.2 C 0 km/h
370 30-03-2020 07:45:00 -3.3 C 3.23 g/m*3 -3.3 C 1.6 km/h
371 30-03-2020 07:50:00 -3.3 C 3.23 g/m*3 -3.3 C 0 km/h
372 30-03-2020 07:55:00 -3.4 C 3.21 g/m*3 -3.4 C 0 km/h
373 30-03-2020 08:00:00 -3.4 C 3.21 g/m*3 -3.4 C 0 km/h
374 30-03-2020 08:05:00 -3.4 C 3.25 g/m*3 -3.4 C 0 km/h
375 30-03-2020 08:10:00 -3.4 C 3.25 g/m*3 -3.4 C 0 km/h
Sensor: Nr:Datum:Temp:Abs-Feuchte:Windchill:Wind:
Aussen-T/F 376 30-03-2020 08:15:00 -3.3 C 3.27 g/m*3 -3.3 C 0 km/h
377 30-03-2020 08:20:00 -3.3 C 3.27 g/m*3 -3.3 C 0 km/h
378 30-03-2020 08:25:00 -3.3 C 3.27 g/m*3 -3.3 C 0 km/h
379 30-03-2020 08:30:00 -3.3 C 3.27 g/m*3 -3.3 C 1.6 km/h
380 30-03-2020 08:35:00 -3.2 C 3.29 g/m*3 -3.2 C 3.2 km/h
381 30-03-2020 08:40:00 -3.1 C 3.32 g/m*3 -3.1 C 0 km/h
382 30-03-2020 08:45:00 -3.1 C 3.32 g/m*3 -3.1 C 0 km/h
383 30-03-2020 08:50:00 -3 C 3.34 g/m*3 -3 C 0 km/h
384 30-03-2020 08:55:00 -2.9 C 3.32 g/m*3 -2.9 C 0 km/h
385 30-03-2020 09:00:00 -2.8 C 3.35 g/m*3 -2.8 C 0 km/h
386 30-03-2020 09:05:00 -2.7 C 3.33 g/m*3 -2.7 C 0 km/h
387 30-03-2020 09:10:00 -2.6 C 3.35 g/m*3 -2.6 C 1.6 km/h
388 30-03-2020 09:15:00 -2.5 C 3.34 g/m*3 -2.5 C 0 km/h
389 30-03-2020 09:20:00 -2.4 C 3.32 g/m*3 -2.4 C 3.2 km/h
390 30-03-2020 09:25:00 -2.3 C 3.34 g/m*3 -2.3 C 1.6 km/h
391 30-03-2020 09:30:00 -2.2 C 3.33 g/m*3 -2.2 C 1.6 km/h
392 30-03-2020 09:35:00 -2.1 C 3.35 g/m*3 -2.1 C 1.6 km/h
393 30-03-2020 09:40:00 -1.9 C 3.35 g/m*3 -1.9 C 3.2 km/h
394 30-03-2020 09:45:00 -1.8 C 3.38 g/m*3 -1.8 C 0 km/h
395 30-03-2020 09:50:00 -1.7 C 3.44 g/m*3 -1.7 C 0 km/h
396 30-03-2020 09:55:00 -1.7 C 3.44 g/m*3 -1.7 C 3.2 km/h
397 30-03-2020 10:00:00 -1.6 C 3.47 g/m*3 -1.6 C 3.2 km/h
398 30-03-2020 10:05:00 -1.5 C 3.45 g/m*3 -1.5 C 0 km/h
399 30-03-2020 10:10:00 -1.4 C 3.52 g/m*3 -1.4 C 0 km/h
400 30-03-2020 10:15:00 -1.3 C 3.54 g/m*3 -1.3 C 1.6 km/h
Sensor: Nr:Datum:Temp:Abs-Feuchte:Windchill:Wind:
Aussen-T/F 401 30-03-2020 10:20:00 -1.2 C 3.57 g/m*3 -1.2 C 1.6 km/h
402 30-03-2020 10:25:00 -1.1 C 3.5 g/m*3 -1.1 C 1.6 km/h
403 30-03-2020 10:30:00 -0.9 C 3.51 g/m*3 -0.9 C 1.6 km/h
404 30-03-2020 10:35:00 -0.7 C 3.46 g/m*3 -2.99 C 6.4 km/h
405 30-03-2020 10:40:00 -0.3 C 3.37 g/m*3 -4.69 C 14.5 km/h
406 30-03-2020 10:45:00 0.2 C 3.44 g/m*3 -1.95 C 6.4 km/h
407 30-03-2020 10:50:00 0.8 C 3.12 g/m*3 -2.67 C 11.3 km/h
408 30-03-2020 10:55:00 1.3 C 3.5 g/m*3 1.3 C 1.6 km/h
409 30-03-2020 11:00:00 1.4 C 3.2 g/m*3 -2.6 C 14.5 km/h
410 30-03-2020 11:05:00 1.9 C 3.04 g/m*3 -0.54 C 8.1 km/h
411 30-03-2020 11:10:00 2.2 C 3.04 g/m*3 2.2 C 3.2 km/h
412 30-03-2020 11:15:00 2.3 C 3.12 g/m*3 2.3 C 1.6 km/h
413 30-03-2020 11:20:00 2.4 C 2.97 g/m*3 -0.74 C 11.3 km/h
414 30-03-2020 11:25:00 2.7 C 2.91 g/m*3 2.7 C 4.8 km/h
415 30-03-2020 11:30:00 2.8 C 2.93 g/m*3 1.05 C 6.4 km/h
416 30-03-2020 11:35:00 3.1 C 2.93 g/m*3 0.87 C 8.1 km/h
417 30-03-2020 11:40:00 3.3 C 2.85 g/m*3 0.7 C 9.7 km/h
418 30-03-2020 11:45:00 3.3 C 2.79 g/m*3 1.63 C 6.4 km/h
419 30-03-2020 11:50:00 3.4 C 2.87 g/m*3 3.4 C 4.8 km/h
420 30-03-2020 11:55:00 3.6 C 2.72 g/m*3 1.46 C 8.1 km/h
421 30-03-2020 12:00:00 3.7 C 2.8 g/m*3 0.82 C 11.3 km/h
422 30-03-2020 12:05:00 3.8 C 2.7 g/m*3 3.8 C 4.8 km/h
423 30-03-2020 12:10:00 4 C 2.67 g/m*3 1.53 C 9.7 km/h
424 30-03-2020 12:15:00 4.1 C 2.69 g/m*3 4.1 C 4.8 km/h
425 30-03-2020 12:20:00 4.2 C 2.58 g/m*3 4.2 C 4.8 km/h
Sensor: Nr:Datum:Temp:Abs-Feuchte:Windchill:Wind:
Aussen-T/F 426 30-03-2020 12:25:00 4.3 C 2.46 g/m*3 4.3 C 4.8 km/h
427 30-03-2020 12:30:00 4.4 C 2.48 g/m*3 2.4 C 8.1 km/h
428 30-03-2020 12:35:00 4.6 C 2.51 g/m*3 1.91 C 11.3 km/h
429 30-03-2020 12:40:00 4.8 C 2.48 g/m*3 2.87 C 8.1 km/h
430 30-03-2020 12:45:00 4.9 C 2.5 g/m*3 4.9 C 3.2 km/h
431 30-03-2020 12:50:00 5.1 C 2.6 g/m*3 2.51 C 11.3 km/h
432 30-03-2020 12:55:00 5.1 C 2.46 g/m*3 5.1 C 4.8 km/h
433 30-03-2020 13:00:00 5.3 C 2.5 g/m*3 5.3 C 4.8 km/h
434 30-03-2020 13:05:00 5.5 C 2.6 g/m*3 3.7 C 8.1 km/h
435 30-03-2020 13:10:00 5.7 C 2.7 g/m*3 4.4 C 6.4 km/h
436 30-03-2020 13:15:00 5.9 C 2.74 g/m*3 4.63 C 6.4 km/h
437 30-03-2020 13:20:00 5.9 C 2.67 g/m*3 3.48 C 11.3 km/h
438 30-03-2020 13:25:00 5.9 C 2.6 g/m*3 3.8 C 9.7 km/h
439 30-03-2020 13:30:00 6 C 2.76 g/m*3 3.92 C 9.7 km/h
440 30-03-2020 13:35:00 6.2 C 2.72 g/m*3 4.15 C 9.7 km/h
441 30-03-2020 13:40:00 6.3 C 2.66 g/m*3 3.96 C 11.3 km/h
442 30-03-2020 13:45:00 6.4 C 2.68 g/m*3 6.4 C 3.2 km/h
443 30-03-2020 13:50:00 6.3 C 2.66 g/m*3 3.2 C 16.1 km/h
444 30-03-2020 13:55:00 6.4 C 2.68 g/m*3 4.75 C 8.1 km/h
445 30-03-2020 14:00:00 6.6 C 2.64 g/m*3 6.6 C 4.8 km/h
446 30-03-2020 14:05:00 6.7 C 2.66 g/m*3 5.56 C 6.4 km/h
447 30-03-2020 14:10:00 6.8 C 2.52 g/m*3 5.22 C 8.1 km/h
448 30-03-2020 14:15:00 6.8 C 2.52 g/m*3 5.67 C 6.4 km/h
449 30-03-2020 14:20:00 7.1 C 2.57 g/m*3 4.41 C 14.5 km/h
450 30-03-2020 14:25:00 7.3 C 2.61 g/m*3 4.23 C 17.7 km/h
Sensor: Nr:Datum:Temp:Abs-Feuchte:Windchill:Wind:
Aussen-T/F 451 30-03-2020 14:30:00 7.3 C 2.77 g/m*3 4.66 C 14.5 km/h
452 30-03-2020 14:35:00 7.3 C 2.69 g/m*3 5.47 C 9.7 km/h
453 30-03-2020 14:40:00 7.4 C 2.62 g/m*3 5.02 C 12.9 km/h
454 30-03-2020 14:45:00 7.6 C 2.82 g/m*3 5.53 C 11.3 km/h
455 30-03-2020 14:50:00 7.7 C 2.84 g/m*3 5.94 C 9.7 km/h
456 30-03-2020 14:55:00 7.9 C 2.96 g/m*3 5.89 C 11.3 km/h
457 30-03-2020 15:00:00 8.1 C 2.91 g/m*3 6.75 C 8.1 km/h
458 30-03-2020 15:05:00 7.9 C 2.87 g/m*3 5.18 C 16.1 km/h
459 30-03-2020 15:10:00 7.8 C 2.94 g/m*3 5.77 C 11.3 km/h
460 30-03-2020 15:15:00 7.8 C 2.94 g/m*3 5.06 C 16.1 km/h
461 30-03-2020 15:20:00 8 C 2.98 g/m*3 5.75 C 12.9 km/h
462 30-03-2020 15:25:00 8 C 2.98 g/m*3 5.3 C 16.1 km/h
463 30-03-2020 15:30:00 8 C 3.14 g/m*3 6.64 C 8.1 km/h
464 30-03-2020 15:35:00 8.2 C 3.18 g/m*3 5.99 C 12.9 km/h
465 30-03-2020 15:40:00 8.2 C 3.1 g/m*3 5.99 C 12.9 km/h
466 30-03-2020 15:45:00 8.3 C 3.12 g/m*3 5.68 C 16.1 km/h
467 30-03-2020 15:50:00 8.3 C 3.2 g/m*3 6.37 C 11.3 km/h
468 30-03-2020 15:55:00 8.3 C 3.12 g/m*3 6.12 C 12.9 km/h
469 30-03-2020 16:00:00 8.4 C 3.14 g/m*3 6.01 C 14.5 km/h
470 30-03-2020 16:05:00 8.6 C 3.35 g/m*3 6.48 C 12.9 km/h
471 30-03-2020 16:10:00 8.8 C 3.31 g/m*3 6.5 C 14.5 km/h
472 30-03-2020 16:15:00 9.2 C 3.3 g/m*3 6.99 C 14.5 km/h
473 30-03-2020 16:20:00 9.2 C 3.39 g/m*3 6.99 C 14.5 km/h
474 30-03-2020 16:25:00 9.3 C 3.42 g/m*3 7.33 C 12.9 km/h
475 30-03-2020 16:30:00 9 C 3.35 g/m*3 7.21 C 11.3 km/h
Sensor: Nr:Datum:Temp:Abs-Feuchte:Windchill:Wind:
Aussen-T/F 476 30-03-2020 16:35:00 8.8 C 3.39 g/m*3 6.97 C 11.3 km/h
477 30-03-2020 16:40:00 9.1 C 3.55 g/m*3 7.33 C 11.3 km/h
478 30-03-2020 16:45:00 9.4 C 3.62 g/m*3 7.97 C 9.7 km/h
479 30-03-2020 16:50:00 9.5 C 3.55 g/m*3 7.58 C 12.9 km/h
480 30-03-2020 16:55:00 9.4 C 3.62 g/m*3 7.46 C 12.9 km/h
481 30-03-2020 17:00:00 9.1 C 3.55 g/m*3 6.87 C 14.5 km/h
482 30-03-2020 17:05:00 9.2 C 3.75 g/m*3 6.99 C 14.5 km/h
483 30-03-2020 17:10:00 9.8 C 3.71 g/m*3 7.54 C 16.1 km/h
484 30-03-2020 17:15:00 9.9 C 3.73 g/m*3 7.48 C 17.7 km/h
485 30-03-2020 17:20:00 9.8 C 3.62 g/m*3 7.54 C 16.1 km/h
486 30-03-2020 17:25:00 9.9 C 3.64 g/m*3 7.85 C 14.5 km/h
487 30-03-2020 17:30:00 9.6 C 3.66 g/m*3 7.29 C 16.1 km/h
488 30-03-2020 17:35:00 9.7 C 3.78 g/m*3 7.41 C 16.1 km/h
489 30-03-2020 17:40:00 9.7 C 3.87 g/m*3 7.23 C 17.7 km/h
490 30-03-2020 17:45:00 9.4 C 3.89 g/m*3 7.24 C 14.5 km/h
491 30-03-2020 17:50:00 9.2 C 3.93 g/m*3 6.61 C 17.7 km/h
492 30-03-2020 17:55:00 8.9 C 3.94 g/m*3 6.85 C 12.9 km/h
493 30-03-2020 18:00:00 8.8 C 4 g/m*3 5.34 C 25.7 km/h
494 30-03-2020 18:05:00 8.5 C 3.93 g/m*3 6.36 C 12.9 km/h
495 30-03-2020 18:10:00 8.2 C 3.94 g/m*3 6.25 C 11.3 km/h
496 30-03-2020 18:15:00 7.9 C 4.02 g/m*3 6.18 C 9.7 km/h
497 30-03-2020 18:20:00 8.1 C 4.16 g/m*3 6.13 C 11.3 km/h
498 30-03-2020 18:25:00 8.4 C 4.16 g/m*3 6.24 C 12.9 km/h
499 30-03-2020 18:30:00 8.7 C 4.15 g/m*3 6.85 C 11.3 km/h
500 30-03-2020 18:35:00 8.9 C 4.2 g/m*3 7.09 C 11.3 km/h
Sensor: Nr:Datum:Temp:Abs-Feuchte:Windchill:Wind:
Aussen-T/F 501 30-03-2020 18:40:00 8.8 C 4.09 g/m*3 6.3 C 16.1 km/h
502 30-03-2020 18:45:00 8.7 C 4.15 g/m*3 6.6 C 12.9 km/h
503 30-03-2020 18:50:00 8.7 C 4.24 g/m*3 7.46 C 8.1 km/h
504 30-03-2020 18:55:00 8.8 C 4.26 g/m*3 6.97 C 11.3 km/h
505 30-03-2020 19:00:00 8.6 C 4.21 g/m*3 6.73 C 11.3 km/h
506 30-03-2020 19:05:00 8.5 C 4.27 g/m*3 6.36 C 12.9 km/h
507 30-03-2020 19:10:00 8.3 C 4.21 g/m*3 5.89 C 14.5 km/h
508 30-03-2020 19:15:00 8.1 C 4.24 g/m*3 6.42 C 9.7 km/h
509 30-03-2020 19:20:00 7.8 C 4.24 g/m*3 7.8 C 4.8 km/h
510 30-03-2020 19:25:00 7.6 C 4.19 g/m*3 6.16 C 8.1 km/h
511 30-03-2020 19:30:00 7.4 C 4.21 g/m*3 5.58 C 9.7 km/h
512 30-03-2020 19:35:00 7.3 C 4.27 g/m*3 5.81 C 8.1 km/h
513 30-03-2020 19:40:00 7.2 C 4.24 g/m*3 7.2 C 4.8 km/h
514 30-03-2020 19:45:00 7 C 4.26 g/m*3 7 C 3.2 km/h
515 30-03-2020 19:50:00 6.8 C 4.28 g/m*3 6.8 C 1.6 km/h
516 30-03-2020 19:55:00 6.4 C 4.32 g/m*3 6.4 C 0 km/h
517 30-03-2020 20:00:00 5.9 C 4.25 g/m*3 5.9 C 0 km/h
518 30-03-2020 20:05:00 5.4 C 4.26 g/m*3 5.4 C 0 km/h
519 30-03-2020 20:10:00 4.9 C 4.19 g/m*3 4.9 C 0 km/h
520 30-03-2020 20:15:00 4.6 C 4.23 g/m*3 4.6 C 0 km/h
521 30-03-2020 20:20:00 4.3 C 4.22 g/m*3 4.3 C 1.6 km/h
522 30-03-2020 20:25:00 4.2 C 4.32 g/m*3 4.2 C 1.6 km/h
523 30-03-2020 20:30:00 4.1 C 4.35 g/m*3 4.1 C 3.2 km/h
524 30-03-2020 20:35:00 3.9 C 4.36 g/m*3 3.9 C 4.8 km/h
525 30-03-2020 20:40:00 3.8 C 4.33 g/m*3 3.8 C 4.8 km/h
Sensor: Nr:Datum:Temp:Abs-Feuchte:Windchill:Wind:
Aussen-T/F 526 30-03-2020 20:45:00 3.7 C 4.3 g/m*3 3.7 C 1.6 km/h
527 30-03-2020 20:50:00 3.6 C 4.33 g/m*3 3.6 C 4.8 km/h
528 30-03-2020 20:55:00 3.6 C 4.39 g/m*3 3.6 C 4.8 km/h
529 30-03-2020 21:00:00 3.5 C 4.43 g/m*3 1.86 C 6.4 km/h
530 30-03-2020 21:05:00 3.6 C 4.52 g/m*3 3.6 C 4.8 km/h
531 30-03-2020 21:10:00 3.6 C 4.52 g/m*3 3.6 C 4.8 km/h
532 30-03-2020 21:15:00 3.7 C 4.55 g/m*3 3.7 C 4.8 km/h
533 30-03-2020 21:20:00 3.7 C 4.61 g/m*3 3.7 C 4.8 km/h
534 30-03-2020 21:25:00 3.8 C 4.64 g/m*3 3.8 C 4.8 km/h
535 30-03-2020 21:30:00 3.8 C 4.64 g/m*3 3.8 C 3.2 km/h
536 30-03-2020 21:35:00 3.9 C 4.67 g/m*3 3.9 C 1.6 km/h
537 30-03-2020 21:40:00 4 C 4.7 g/m*3 4 C 0 km/h
538 30-03-2020 21:45:00 4 C 4.7 g/m*3 4 C 3.2 km/h
539 30-03-2020 21:50:00 4 C 4.7 g/m*3 4 C 3.2 km/h
540 30-03-2020 21:55:00 4.1 C 4.74 g/m*3 4.1 C 1.6 km/h
541 30-03-2020 22:00:00 4 C 4.7 g/m*3 4 C 0 km/h
542 30-03-2020 22:05:00 4 C 4.77 g/m*3 4 C 0 km/h
543 30-03-2020 22:10:00 3.9 C 4.74 g/m*3 3.9 C 0 km/h
544 30-03-2020 22:15:00 4 C 4.7 g/m*3 4 C 3.2 km/h
545 30-03-2020 22:20:00 4 C 4.7 g/m*3 4 C 0 km/h
546 30-03-2020 22:25:00 4.1 C 4.8 g/m*3 4.1 C 0 km/h
547 30-03-2020 22:30:00 4.1 C 4.67 g/m*3 4.1 C 3.2 km/h
548 30-03-2020 22:35:00 4.1 C 4.67 g/m*3 4.1 C 0 km/h
549 30-03-2020 22:40:00 4.2 C 4.7 g/m*3 4.2 C 0 km/h
550 30-03-2020 22:45:00 4.2 C 4.64 g/m*3 4.2 C 3.2 km/h
Sensor: Nr:Datum:Temp:Abs-Feuchte:Windchill:Wind:
Aussen-T/F 551 30-03-2020 22:50:00 4.3 C 4.67 g/m*3 4.3 C 1.6 km/h
552 30-03-2020 22:55:00 4.3 C 4.74 g/m*3 4.3 C 0 km/h
553 30-03-2020 23:00:00 4.3 C 4.67 g/m*3 4.3 C 4.8 km/h
554 30-03-2020 23:05:00 4.3 C 4.67 g/m*3 4.3 C 0 km/h
555 30-03-2020 23:10:00 4.3 C 4.67 g/m*3 4.3 C 3.2 km/h
556 30-03-2020 23:15:00 4.4 C 4.7 g/m*3 4.4 C 0 km/h
557 30-03-2020 23:20:00 4.4 C 4.77 g/m*3 4.4 C 0 km/h
558 30-03-2020 23:25:00 4.4 C 4.7 g/m*3 4.4 C 1.6 km/h
559 30-03-2020 23:30:00 4.4 C 4.7 g/m*3 4.4 C 0 km/h
560 30-03-2020 23:35:00 4.4 C 4.7 g/m*3 4.4 C 3.2 km/h
561 30-03-2020 23:40:00 4.4 C 4.77 g/m*3 4.4 C 1.6 km/h
562 30-03-2020 23:45:00 4.4 C 4.77 g/m*3 4.4 C 1.6 km/h
563 30-03-2020 23:50:00 4.4 C 4.77 g/m*3 4.4 C 0 km/h
564 30-03-2020 23:55:00 4.4 C 4.7 g/m*3 4.4 C 1.6 km/h
565 31-03-2020 00:00:00 4.4 C 4.7 g/m*3 4.4 C 1.6 km/h
566 31-03-2020 00:05:00 4.4 C 4.7 g/m*3 4.4 C 0 km/h
567 31-03-2020 00:10:00 4.4 C 4.7 g/m*3 4.4 C 0 km/h
568 31-03-2020 00:15:00 4.5 C 4.73 g/m*3 4.5 C 3.2 km/h
569 31-03-2020 00:20:00 4.5 C 4.73 g/m*3 4.5 C 3.2 km/h
570 31-03-2020 00:25:00 4.5 C 4.8 g/m*3 4.5 C 3.2 km/h
571 31-03-2020 00:30:00 4.5 C 4.8 g/m*3 4.5 C 1.6 km/h
572 31-03-2020 00:35:00 4.4 C 4.77 g/m*3 4.4 C 0 km/h
573 31-03-2020 00:40:00 4.5 C 4.8 g/m*3 4.5 C 0 km/h
574 31-03-2020 00:45:00 4.5 C 4.8 g/m*3 4.5 C 0 km/h
575 31-03-2020 00:50:00 4.6 C 4.83 g/m*3 4.6 C 0 km/h
Sensor: Nr:Datum:Temp:Abs-Feuchte:Windchill:Wind:
Aussen-T/F 576 31-03-2020 00:55:00 4.6 C 4.96 g/m*3 4.6 C 4.8 km/h
577 31-03-2020 01:00:00 4.7 C 5 g/m*3 4.7 C 0 km/h
578 31-03-2020 01:05:00 4.7 C 5.06 g/m*3 4.7 C 1.6 km/h
579 31-03-2020 01:10:00 4.7 C 5.06 g/m*3 4.7 C 1.6 km/h
580 31-03-2020 01:15:00 4.7 C 5.06 g/m*3 4.7 C 1.6 km/h
581 31-03-2020 01:20:00 4.7 C 5.13 g/m*3 4.7 C 1.6 km/h
582 31-03-2020 01:25:00 4.6 C 5.16 g/m*3 4.6 C 1.6 km/h
583 31-03-2020 01:30:00 4.5 C 5.19 g/m*3 4.5 C 3.2 km/h
584 31-03-2020 01:35:00 4.5 C 5.26 g/m*3 4.5 C 0 km/h
585 31-03-2020 01:40:00 4.5 C 5.26 g/m*3 3.02 C 6.4 km/h
586 31-03-2020 01:45:00 4.5 C 5.32 g/m*3 4.5 C 1.6 km/h
587 31-03-2020 01:50:00 4.6 C 5.36 g/m*3 4.6 C 1.6 km/h
588 31-03-2020 01:55:00 4.6 C 5.43 g/m*3 4.6 C 4.8 km/h
589 31-03-2020 02:00:00 4.6 C 5.43 g/m*3 4.6 C 3.2 km/h
590 31-03-2020 02:05:00 4.5 C 5.32 g/m*3 4.5 C 0 km/h
591 31-03-2020 02:10:00 4.4 C 5.35 g/m*3 4.4 C 4.8 km/h
592 31-03-2020 02:15:00 4.3 C 5.32 g/m*3 4.3 C 4.8 km/h
593 31-03-2020 02:20:00 4.2 C 5.35 g/m*3 4.2 C 3.2 km/h
594 31-03-2020 02:25:00 4.1 C 5.31 g/m*3 4.1 C 0 km/h
595 31-03-2020 02:30:00 4.1 C 5.38 g/m*3 4.1 C 0 km/h
596 31-03-2020 02:35:00 4.1 C 5.38 g/m*3 4.1 C 0 km/h
597 31-03-2020 02:40:00 4 C 5.34 g/m*3 4 C 0 km/h
598 31-03-2020 02:45:00 3.9 C 5.31 g/m*3 3.9 C 0 km/h
599 31-03-2020 02:50:00 3.8 C 5.27 g/m*3 3.8 C 0 km/h
600 31-03-2020 02:55:00 3.6 C 5.2 g/m*3 3.6 C 0 km/h
Sensor: Nr:Datum:Temp:Abs-Feuchte:Windchill:Wind:
Aussen-T/F 601 31-03-2020 03:00:00 3.4 C 5.19 g/m*3 3.4 C 1.6 km/h
602 31-03-2020 03:05:00 3.4 C 5.25 g/m*3 3.4 C 0 km/h
603 31-03-2020 03:10:00 3.3 C 5.22 g/m*3 3.3 C 0 km/h
604 31-03-2020 03:15:00 3.2 C 5.18 g/m*3 3.2 C 3.2 km/h
605 31-03-2020 03:20:00 3.2 C 5.24 g/m*3 3.2 C 3.2 km/h
606 31-03-2020 03:25:00 3.1 C 5.21 g/m*3 3.1 C 1.6 km/h
607 31-03-2020 03:30:00 3.1 C 5.27 g/m*3 3.1 C 1.6 km/h
608 31-03-2020 03:35:00 3.1 C 5.27 g/m*3 3.1 C 1.6 km/h
609 31-03-2020 03:40:00 3.1 C 5.27 g/m*3 3.1 C 0 km/h
610 31-03-2020 03:45:00 3 C 5.23 g/m*3 3 C 0 km/h
611 31-03-2020 03:50:00 2.9 C 5.2 g/m*3 2.9 C 0 km/h
612 31-03-2020 03:55:00 2.9 C 5.26 g/m*3 2.9 C 0 km/h
613 31-03-2020 04:00:00 3 C 5.29 g/m*3 3 C 0 km/h
614 31-03-2020 04:05:00 3.1 C 5.39 g/m*3 3.1 C 0 km/h
615 31-03-2020 04:10:00 3.2 C 5.42 g/m*3 3.2 C 0 km/h
616 31-03-2020 04:15:00 3.2 C 5.42 g/m*3 3.2 C 0 km/h
617 31-03-2020 04:20:00 3.3 C 5.46 g/m*3 3.3 C 1.6 km/h
618 31-03-2020 04:25:00 3.4 C 5.5 g/m*3 3.4 C 0 km/h
619 31-03-2020 04:30:00 3.4 C 5.5 g/m*3 3.4 C 0 km/h
620 31-03-2020 04:35:00 3.4 C 5.5 g/m*3 3.4 C 0 km/h
621 31-03-2020 04:40:00 3.5 C 5.53 g/m*3 3.5 C 0 km/h
622 31-03-2020 04:45:00 3.5 C 5.53 g/m*3 3.5 C 0 km/h
623 31-03-2020 04:50:00 3.6 C 5.57 g/m*3 3.6 C 1.6 km/h
624 31-03-2020 04:55:00 3.6 C 5.57 g/m*3 3.6 C 0 km/h
625 31-03-2020 05:00:00 3.7 C 5.61 g/m*3 3.7 C 0 km/h
Sensor: Nr:Datum:Temp:Abs-Feuchte:Windchill:Wind:
Aussen-T/F 626 31-03-2020 05:05:00 3.7 C 5.61 g/m*3 3.7 C 0 km/h
627 31-03-2020 05:10:00 3.7 C 5.55 g/m*3 3.7 C 0 km/h
628 31-03-2020 05:15:00 3.7 C 5.55 g/m*3 3.7 C 0 km/h
629 31-03-2020 05:20:00 3.6 C 5.51 g/m*3 3.6 C 0 km/h
630 31-03-2020 05:25:00 3.4 C 5.44 g/m*3 3.4 C 0 km/h
631 31-03-2020 05:30:00 3.3 C 5.4 g/m*3 3.3 C 0 km/h
632 31-03-2020 05:35:00 3.2 C 5.36 g/m*3 3.2 C 1.6 km/h
633 31-03-2020 05:40:00 3.1 C 5.27 g/m*3 3.1 C 1.6 km/h
634 31-03-2020 05:45:00 2.8 C 5.16 g/m*3 2.8 C 1.6 km/h
635 31-03-2020 05:50:00 2.7 C 5.13 g/m*3 2.7 C 0 km/h
636 31-03-2020 05:55:00 2.4 C 5.02 g/m*3 2.4 C 3.2 km/h
637 31-03-2020 06:00:00 2.3 C 4.99 g/m*3 2.3 C 3.2 km/h
638 31-03-2020 06:05:00 2.2 C 5.01 g/m*3 2.2 C 1.6 km/h
639 31-03-2020 06:10:00 2.1 C 4.98 g/m*3 2.1 C 1.6 km/h
640 31-03-2020 06:15:00 1.9 C 4.91 g/m*3 1.9 C 0 km/h
641 31-03-2020 06:20:00 1.9 C 4.97 g/m*3 1.9 C 0 km/h
642 31-03-2020 06:25:00 1.9 C 4.97 g/m*3 1.9 C 0 km/h
643 31-03-2020 06:30:00 2 C 5.06 g/m*3 2 C 0 km/h
644 31-03-2020 06:35:00 2.2 C 5.18 g/m*3 2.2 C 0 km/h
645 31-03-2020 06:40:00 2.3 C 5.22 g/m*3 2.3 C 0 km/h
646 31-03-2020 06:45:00 2.3 C 5.22 g/m*3 2.3 C 0 km/h
647 31-03-2020 06:50:00 2.4 C 5.25 g/m*3 2.4 C 0 km/h
648 31-03-2020 06:55:00 2.5 C 5.29 g/m*3 2.5 C 0 km/h
649 31-03-2020 07:00:00 2.6 C 5.32 g/m*3 2.6 C 0 km/h
650 31-03-2020 07:05:00 2.6 C 5.32 g/m*3 2.6 C 0 km/h
Sensor: Nr:Datum:Temp:Abs-Feuchte:Windchill:Wind:
Aussen-T/F 651 31-03-2020 07:10:00 2.7 C 5.36 g/m*3 2.7 C 0 km/h
652 31-03-2020 07:15:00 2.7 C 5.36 g/m*3 2.7 C 0 km/h
653 31-03-2020 07:20:00 2.7 C 5.36 g/m*3 2.7 C 0 km/h
654 31-03-2020 07:25:00 2.7 C 5.36 g/m*3 2.7 C 0 km/h
655 31-03-2020 07:30:00 2.7 C 5.36 g/m*3 2.7 C 0 km/h
656 31-03-2020 07:35:00 2.7 C 5.36 g/m*3 2.7 C 0 km/h
657 31-03-2020 07:40:00 2.7 C 5.36 g/m*3 2.7 C 0 km/h
658 31-03-2020 07:45:00 2.6 C 5.27 g/m*3 2.6 C 0 km/h
659 31-03-2020 07:50:00 2.6 C 5.32 g/m*3 2.6 C 0 km/h
660 31-03-2020 07:55:00 2.6 C 5.32 g/m*3 2.6 C 0 km/h
661 31-03-2020 08:00:00 2.7 C 5.36 g/m*3 2.7 C 0 km/h
662 31-03-2020 08:05:00 2.8 C 5.4 g/m*3 2.8 C 0 km/h
663 31-03-2020 08:10:00 2.9 C 5.43 g/m*3 2.9 C 0 km/h
664 31-03-2020 08:15:00 3.1 C 5.57 g/m*3 3.1 C 0 km/h
665 31-03-2020 08:20:00 3.3 C 5.58 g/m*3 3.3 C 0 km/h
666 31-03-2020 08:25:00 3.4 C 5.62 g/m*3 3.4 C 0 km/h
667 31-03-2020 08:30:00 3.6 C 5.63 g/m*3 3.6 C 0 km/h
668 31-03-2020 08:35:00 3.7 C 5.67 g/m*3 3.7 C 1.6 km/h
669 31-03-2020 08:40:00 3.8 C 5.58 g/m*3 2.21 C 6.4 km/h
670 31-03-2020 08:45:00 3.9 C 5.49 g/m*3 1.82 C 8.1 km/h
671 31-03-2020 08:50:00 4.1 C 5.44 g/m*3 2.05 C 8.1 km/h
672 31-03-2020 08:55:00 4.2 C 5.35 g/m*3 2.67 C 6.4 km/h
673 31-03-2020 09:00:00 4.3 C 5.25 g/m*3 1.55 C 11.3 km/h
674 31-03-2020 09:05:00 4.4 C 5.22 g/m*3 2.4 C 8.1 km/h
675 31-03-2020 09:10:00 4.4 C 5.09 g/m*3 4.4 C 4.8 km/h
Sensor: Nr:Datum:Temp:Abs-Feuchte:Windchill:Wind:
Aussen-T/F 676 31-03-2020 09:15:00 4.4 C 5.09 g/m*3 2.9 C 6.4 km/h
677 31-03-2020 09:20:00 4.4 C 5.03 g/m*3 2.01 C 9.7 km/h
678 31-03-2020 09:25:00 4.5 C 5.06 g/m*3 2.52 C 8.1 km/h
679 31-03-2020 09:30:00 4.5 C 5.06 g/m*3 4.5 C 4.8 km/h
680 31-03-2020 09:35:00 4.6 C 5.03 g/m*3 2.64 C 8.1 km/h
681 31-03-2020 09:40:00 4.6 C 4.96 g/m*3 3.13 C 6.4 km/h
682 31-03-2020 09:45:00 4.6 C 5.03 g/m*3 4.6 C 4.8 km/h
683 31-03-2020 09:50:00 4.7 C 4.86 g/m*3 1.73 C 12.9 km/h
684 31-03-2020 09:55:00 4.8 C 5.03 g/m*3 4.8 C 4.8 km/h
685 31-03-2020 10:00:00 4.9 C 5 g/m*3 3.48 C 6.4 km/h
686 31-03-2020 10:05:00 4.9 C 4.86 g/m*3 2.27 C 11.3 km/h
687 31-03-2020 10:10:00 4.9 C 4.93 g/m*3 2.27 C 11.3 km/h
688 31-03-2020 10:15:00 4.9 C 4.93 g/m*3 2.99 C 8.1 km/h
689 31-03-2020 10:20:00 4.9 C 4.93 g/m*3 2.27 C 11.3 km/h
690 31-03-2020 10:25:00 4.9 C 4.86 g/m*3 4.9 C 4.8 km/h
691 31-03-2020 10:30:00 4.8 C 4.83 g/m*3 4.8 C 4.8 km/h
692 31-03-2020 10:35:00 4.8 C 4.83 g/m*3 1.58 C 14.5 km/h
693 31-03-2020 10:40:00 4.8 C 4.76 g/m*3 2.49 C 9.7 km/h
694 31-03-2020 10:45:00 4.8 C 4.76 g/m*3 2.49 C 9.7 km/h
695 31-03-2020 10:50:00 4.8 C 4.69 g/m*3 2.87 C 8.1 km/h
696 31-03-2020 10:55:00 4.8 C 4.69 g/m*3 2.49 C 9.7 km/h
697 31-03-2020 11:00:00 4.8 C 4.69 g/m*3 2.49 C 9.7 km/h
698 31-03-2020 11:05:00 4.8 C 4.69 g/m*3 2.87 C 8.1 km/h
699 31-03-2020 11:10:00 4.8 C 4.63 g/m*3 1.11 C 17.7 km/h
700 31-03-2020 11:15:00 4.9 C 4.59 g/m*3 2.61 C 9.7 km/h
Sensor: Nr:Datum:Temp:Abs-Feuchte:Windchill:Wind:
Aussen-T/F 701 31-03-2020 11:20:00 5.1 C 4.65 g/m*3 2.84 C 9.7 km/h
702 31-03-2020 11:25:00 5.2 C 4.61 g/m*3 2.96 C 9.7 km/h
703 31-03-2020 11:30:00 5.4 C 4.6 g/m*3 4.06 C 6.4 km/h
704 31-03-2020 11:35:00 5.5 C 4.57 g/m*3 3.32 C 9.7 km/h
705 31-03-2020 11:40:00 5.6 C 4.52 g/m*3 2.83 C 12.9 km/h
706 31-03-2020 11:45:00 5.6 C 4.52 g/m*3 2.83 C 12.9 km/h
707 31-03-2020 11:50:00 5.6 C 4.52 g/m*3 2.33 C 16.1 km/h
708 31-03-2020 11:55:00 5.7 C 4.41 g/m*3 2.95 C 12.9 km/h
709 31-03-2020 12:00:00 5.8 C 4.44 g/m*3 4.52 C 6.4 km/h
710 31-03-2020 12:05:00 5.9 C 4.4 g/m*3 4.17 C 8.1 km/h
711 31-03-2020 12:10:00 6 C 4.43 g/m*3 6 C 3.2 km/h
712 31-03-2020 12:15:00 6.3 C 4.29 g/m*3 3.68 C 12.9 km/h
713 31-03-2020 12:20:00 6.6 C 4.23 g/m*3 4.32 C 11.3 km/h
714 31-03-2020 12:25:00 6.6 C 4.15 g/m*3 3.57 C 16.1 km/h
715 31-03-2020 12:30:00 6.8 C 4.21 g/m*3 4.29 C 12.9 km/h
716 31-03-2020 12:35:00 6.9 C 4.08 g/m*3 4.68 C 11.3 km/h
717 31-03-2020 12:40:00 7.2 C 4.24 g/m*3 4.31 C 16.1 km/h
718 31-03-2020 12:45:00 7.2 C 4.16 g/m*3 4.77 C 12.9 km/h
719 31-03-2020 12:50:00 7.2 C 4.16 g/m*3 5.04 C 11.3 km/h
720 31-03-2020 12:55:00 7.2 C 4.24 g/m*3 5.35 C 9.7 km/h
721 31-03-2020 13:00:00 7.2 C 4.08 g/m*3 4.53 C 14.5 km/h
722 31-03-2020 13:05:00 7.1 C 3.98 g/m*3 5.23 C 9.7 km/h
723 31-03-2020 13:10:00 6.9 C 3.93 g/m*3 5.34 C 8.1 km/h
724 31-03-2020 13:15:00 7 C 3.95 g/m*3 5.11 C 9.7 km/h
725 31-03-2020 13:20:00 7 C 3.8 g/m*3 4.8 C 11.3 km/h
Sensor: Nr:Datum:Temp:Abs-Feuchte:Windchill:Wind:
Aussen-T/F 726 31-03-2020 13:25:00 7.1 C 3.82 g/m*3 4.65 C 12.9 km/h
727 31-03-2020 13:30:00 7.2 C 3.77 g/m*3 5.69 C 8.1 km/h
728 31-03-2020 13:35:00 7.4 C 3.82 g/m*3 5.02 C 12.9 km/h
729 31-03-2020 13:40:00 7.7 C 3.73 g/m*3 4.73 C 17.7 km/h
730 31-03-2020 13:45:00 7.7 C 3.57 g/m*3 5.38 C 12.9 km/h
731 31-03-2020 13:50:00 7.8 C 3.59 g/m*3 5.51 C 12.9 km/h
732 31-03-2020 13:55:00 8 C 3.55 g/m*3 5.75 C 12.9 km/h
733 31-03-2020 14:00:00 8.2 C 3.6 g/m*3 5.55 C 16.1 km/h
734 31-03-2020 14:05:00 8.2 C 3.6 g/m*3 5.99 C 12.9 km/h
735 31-03-2020 14:10:00 8.2 C 3.68 g/m*3 5.76 C 14.5 km/h
736 31-03-2020 14:15:00 8.5 C 3.76 g/m*3 6.61 C 11.3 km/h
737 31-03-2020 14:20:00 8.8 C 3.92 g/m*3 6.97 C 11.3 km/h
738 31-03-2020 14:25:00 8.8 C 3.83 g/m*3 5.93 C 19.3 km/h
739 31-03-2020 14:30:00 8.7 C 3.81 g/m*3 6.17 C 16.1 km/h
740 31-03-2020 14:35:00 8.8 C 3.74 g/m*3 6.72 C 12.9 km/h
741 31-03-2020 14:40:00 8.7 C 3.63 g/m*3 6.17 C 16.1 km/h
742 31-03-2020 14:45:00 8.8 C 3.66 g/m*3 6.72 C 12.9 km/h
743 31-03-2020 14:50:00 8.8 C 3.66 g/m*3 6.5 C 14.5 km/h
744 31-03-2020 14:55:00 8.8 C 3.66 g/m*3 6.97 C 11.3 km/h
745 31-03-2020 15:00:00 8.9 C 3.68 g/m*3 6.85 C 12.9 km/h
746 31-03-2020 15:05:00 8.9 C 3.42 g/m*3 7.09 C 11.3 km/h
747 31-03-2020 15:10:00 8.8 C 3.66 g/m*3 6.3 C 16.1 km/h
748 31-03-2020 15:15:00 8.9 C 3.59 g/m*3 6.62 C 14.5 km/h
749 31-03-2020 15:20:00 8.9 C 3.59 g/m*3 6.62 C 14.5 km/h
750 31-03-2020 15:25:00 9 C 3.61 g/m*3 8.21 C 6.4 km/h
Sensor: Nr:Datum:Temp:Abs-Feuchte:Windchill:Wind:
Aussen-T/F 751 31-03-2020 15:30:00 9.1 C 3.64 g/m*3 7.33 C 11.3 km/h
752 31-03-2020 15:35:00 9.1 C 3.55 g/m*3 7.33 C 11.3 km/h
753 31-03-2020 15:40:00 9.1 C 3.55 g/m*3 6.31 C 19.3 km/h
754 31-03-2020 15:45:00 9.2 C 3.57 g/m*3 7.21 C 12.9 km/h
755 31-03-2020 15:50:00 9.3 C 3.5 g/m*3 7.12 C 14.5 km/h
756 31-03-2020 15:55:00 9.3 C 3.5 g/m*3 7.33 C 12.9 km/h
757 31-03-2020 16:00:00 9.5 C 3.64 g/m*3 7.58 C 12.9 km/h
758 31-03-2020 16:05:00 9.6 C 3.57 g/m*3 7.94 C 11.3 km/h
759 31-03-2020 16:10:00 9.6 C 3.48 g/m*3 6.94 C 19.3 km/h
760 31-03-2020 16:15:00 9.6 C 3.57 g/m*3 8.52 C 8.1 km/h
761 31-03-2020 16:20:00 9.7 C 3.6 g/m*3 7.41 C 16.1 km/h
762 31-03-2020 16:25:00 9.8 C 3.43 g/m*3 7.54 C 16.1 km/h
763 31-03-2020 16:30:00 9.9 C 3.45 g/m*3 7.66 C 16.1 km/h
764 31-03-2020 16:35:00 10 C 3.66 g/m*3 8.19 C 12.9 km/h
765 31-03-2020 16:40:00 10.1 C 3.5 g/m*3 7.42 C 20.9 km/h
766 31-03-2020 16:45:00 9.9 C 3.36 g/m*3 8.06 C 12.9 km/h
767 31-03-2020 16:50:00 10 C 3.57 g/m*3 7.61 C 17.7 km/h
768 31-03-2020 16:55:00 10.1 C 3.5 g/m*3 7.57 C 19.3 km/h
769 31-03-2020 17:00:00 10 C 3.38 g/m*3 8.42 C 11.3 km/h
770 31-03-2020 17:05:00 10.2 C 3.71 g/m*3 9.22 C 8.1 km/h
771 31-03-2020 17:10:00 10.6 C 3.51 g/m*3 9.69 C 8.1 km/h
772 31-03-2020 17:15:00 10.9 C 3.58 g/m*3 10.04 C 8.1 km/h
773 31-03-2020 17:20:00 11.2 C 3.65 g/m*3 11.2 C 9.7 km/h
774 31-03-2020 17:25:00 11.3 C 3.67 g/m*3 11.3 C 9.7 km/h
775 31-03-2020 17:30:00 11.3 C 3.47 g/m*3 11.3 C 6.4 km/h
Sensor: Nr:Datum:Temp:Abs-Feuchte:Windchill:Wind:
Aussen-T/F 776 31-03-2020 17:35:00 11.1 C 3.53 g/m*3 11.1 C 16.1 km/h
777 31-03-2020 17:40:00 11.1 C 3.53 g/m*3 11.1 C 6.4 km/h
778 31-03-2020 17:45:00 11 C 3.6 g/m*3 9.4 C 12.9 km/h
779 31-03-2020 17:50:00 10.9 C 3.38 g/m*3 8.9 C 16.1 km/h
780 31-03-2020 17:55:00 10.5 C 3.39 g/m*3 8.59 C 14.5 km/h
781 31-03-2020 18:00:00 10.5 C 3.39 g/m*3 8.8 C 12.9 km/h
782 31-03-2020 18:05:00 10.7 C 3.44 g/m*3 8.65 C 16.1 km/h
783 31-03-2020 18:10:00 10.8 C 3.56 g/m*3 10.8 C 4.8 km/h
784 31-03-2020 18:15:00 11.2 C 3.65 g/m*3 11.2 C 3.2 km/h
785 31-03-2020 18:20:00 11.3 C 3.57 g/m*3 11.3 C 16.1 km/h
786 31-03-2020 18:25:00 10.9 C 3.48 g/m*3 9.28 C 12.9 km/h
787 31-03-2020 18:30:00 10.7 C 3.63 g/m*3 9.52 C 9.7 km/h
788 31-03-2020 18:35:00 10.7 C 3.54 g/m*3 9.81 C 8.1 km/h
789 31-03-2020 18:40:00 10.6 C 3.51 g/m*3 9.14 C 11.3 km/h
790 31-03-2020 18:45:00 10.6 C 3.61 g/m*3 10.6 C 4.8 km/h
791 31-03-2020 18:50:00 10.7 C 3.44 g/m*3 10.18 C 6.4 km/h
792 31-03-2020 18:55:00 10.6 C 3.51 g/m*3 10.6 C 4.8 km/h
793 31-03-2020 19:00:00 10.6 C 3.51 g/m*3 9.69 C 8.1 km/h
794 31-03-2020 19:05:00 10.3 C 3.54 g/m*3 8.78 C 11.3 km/h
795 31-03-2020 19:10:00 10.1 C 3.4 g/m*3 8.8 C 9.7 km/h
796 31-03-2020 19:15:00 10.1 C 3.5 g/m*3 10.1 C 3.2 km/h
797 31-03-2020 19:20:00 10.1 C 3.5 g/m*3 9.1 C 8.1 km/h
798 31-03-2020 19:25:00 9.9 C 3.45 g/m*3 9.9 C 3.2 km/h
799 31-03-2020 19:30:00 9.8 C 3.53 g/m*3 9.8 C 4.8 km/h
800 31-03-2020 19:35:00 9.7 C 3.78 g/m*3 9.7 C 1.6 km/h
Sensor: Nr:Datum:Temp:Abs-Feuchte:Windchill:Wind:
Aussen-T/F 801 31-03-2020 19:40:00 9.4 C 3.71 g/m*3 9.4 C 1.6 km/h
802 31-03-2020 19:45:00 9.2 C 3.93 g/m*3 9.2 C 1.6 km/h
803 31-03-2020 19:50:00 8.7 C 4.06 g/m*3 8.7 C 3.2 km/h
804 31-03-2020 19:55:00 8.2 C 4.02 g/m*3 8.2 C 3.2 km/h
805 31-03-2020 20:00:00 7.6 C 4.11 g/m*3 7.6 C 4.8 km/h
806 31-03-2020 20:05:00 7 C 4.03 g/m*3 7 C 4.8 km/h
807 31-03-2020 20:10:00 6.5 C 4.05 g/m*3 6.5 C 3.2 km/h
808 31-03-2020 20:15:00 6.1 C 4.09 g/m*3 6.1 C 3.2 km/h
809 31-03-2020 20:20:00 5.7 C 3.99 g/m*3 5.7 C 4.8 km/h
810 31-03-2020 20:25:00 5.3 C 4.02 g/m*3 5.3 C 4.8 km/h
811 31-03-2020 20:30:00 5.1 C 4.04 g/m*3 5.1 C 4.8 km/h
812 31-03-2020 20:35:00 4.8 C 4.02 g/m*3 4.8 C 3.2 km/h
813 31-03-2020 20:40:00 4.6 C 4.04 g/m*3 4.6 C 3.2 km/h
814 31-03-2020 20:45:00 4.4 C 3.98 g/m*3 4.4 C 3.2 km/h
815 31-03-2020 20:50:00 4.2 C 3.99 g/m*3 4.2 C 4.8 km/h
816 31-03-2020 20:55:00 4.1 C 4.03 g/m*3 4.1 C 4.8 km/h
817 31-03-2020 21:00:00 3.9 C 3.98 g/m*3 3.9 C 4.8 km/h
818 31-03-2020 21:05:00 3.8 C 4.02 g/m*3 3.8 C 3.2 km/h
819 31-03-2020 21:10:00 3.7 C 3.99 g/m*3 3.7 C 1.6 km/h
820 31-03-2020 21:15:00 3.6 C 3.96 g/m*3 3.6 C 3.2 km/h
821 31-03-2020 21:20:00 3.5 C 3.94 g/m*3 3.5 C 4.8 km/h
822 31-03-2020 21:25:00 3.4 C 3.97 g/m*3 3.4 C 4.8 km/h
823 31-03-2020 21:30:00 3.3 C 3.88 g/m*3 3.3 C 3.2 km/h
824 31-03-2020 21:35:00 3.3 C 3.94 g/m*3 3.3 C 3.2 km/h
825 31-03-2020 21:40:00 3.2 C 3.98 g/m*3 3.2 C 3.2 km/h
Sensor: Nr:Datum:Temp:Abs-Feuchte:Windchill:Wind:
Aussen-T/F 826 31-03-2020 21:45:00 3.1 C 3.95 g/m*3 1.4 C 6.4 km/h
827 31-03-2020 21:50:00 3 C 3.92 g/m*3 3 C 4.8 km/h
828 31-03-2020 21:55:00 2.9 C 3.9 g/m*3 2.9 C 3.2 km/h
829 31-03-2020 22:00:00 2.8 C 3.87 g/m*3 2.8 C 4.8 km/h
830 31-03-2020 22:05:00 2.8 C 3.93 g/m*3 2.8 C 3.2 km/h
831 31-03-2020 22:10:00 2.7 C 3.9 g/m*3 2.7 C 4.8 km/h
832 31-03-2020 22:15:00 2.6 C 3.94 g/m*3 2.6 C 4.8 km/h
833 31-03-2020 22:20:00 2.5 C 3.91 g/m*3 2.5 C 4.8 km/h
834 31-03-2020 22:25:00 2.4 C 3.88 g/m*3 2.4 C 4.8 km/h
835 31-03-2020 22:30:00 2.3 C 3.86 g/m*3 2.3 C 4.8 km/h
836 31-03-2020 22:35:00 2.3 C 3.91 g/m*3 2.3 C 4.8 km/h
837 31-03-2020 22:40:00 2.2 C 3.89 g/m*3 2.2 C 4.8 km/h
838 31-03-2020 22:45:00 2.2 C 3.94 g/m*3 2.2 C 4.8 km/h
839 31-03-2020 22:50:00 2.1 C 3.86 g/m*3 2.1 C 4.8 km/h
840 31-03-2020 22:55:00 2 C 3.89 g/m*3 2 C 3.2 km/h
841 31-03-2020 23:00:00 1.9 C 3.86 g/m*3 1.9 C 4.8 km/h
842 31-03-2020 23:05:00 1.8 C 3.89 g/m*3 1.8 C 3.2 km/h
843 31-03-2020 23:10:00 1.7 C 3.87 g/m*3 1.7 C 4.8 km/h
844 31-03-2020 23:15:00 1.7 C 3.92 g/m*3 1.7 C 4.8 km/h
845 31-03-2020 23:20:00 1.6 C 3.89 g/m*3 1.6 C 3.2 km/h
846 31-03-2020 23:25:00 1.4 C 3.89 g/m*3 1.4 C 3.2 km/h
847 31-03-2020 23:30:00 1.3 C 3.87 g/m*3 1.3 C 4.8 km/h
848 31-03-2020 23:35:00 1.2 C 3.84 g/m*3 1.2 C 4.8 km/h
849 31-03-2020 23:40:00 1.2 C 3.89 g/m*3 1.2 C 4.8 km/h
850 31-03-2020 23:45:00 1.1 C 3.87 g/m*3 1.1 C 3.2 km/h
Sensor: Nr:Datum:Temp:Abs-Feuchte:Windchill:Wind:
Aussen-T/F 851 31-03-2020 23:50:00 1.1 C 3.87 g/m*3 1.1 C 3.2 km/h
852 31-03-2020 23:55:00 1.1 C 3.87 g/m*3 1.1 C 3.2 km/h

Legende:
   Min
   Max


Maximal/Minimal-Werte vom 29.03.2020 - 31.03.2020

Sensor Min Max Avg
Temp
(Aussen-T/F)
-3.4 °C
30-03-2020  07:55:00
11.3 °C
31-03-2020  17:25:00
4.55 °C
Abs-Feuchte
(Aussen-T/F)
2.46 g/m*3
30-03-2020  12:25:00
5.85 g/m*3
29-03-2020  00:05:00
4.3 g/m*3
Windchill
(Aussen-T/F)
-5.76 C
30-03-2020  06:40:00
11.3 C
31-03-2020  17:25:00
3.09 C

Die Daten stammen von einer Davis Vantage Pro 2 Wetter-Station und werden unter Linux mit der Software wview2wettercgi und aufbereitet. Alle Angaben erfolgen ohne Gewähr für ihre Vollständigkeit oder Richtigkeit.
Kontakt: Rainer Krienke krienke@uni-koblenz.de . Meine Webseiten an der Uni Koblenz oder privat.
Version: $Revision: 0.78 $